Zurück zum Katalog

FENGYUN 1C DEB

LostSSO
NORAD 36155·DEBRIS·🇨🇳 China

Gestartet May 10, 1999 von Taiyuan Satellite Launch Center

Loading…

Nächste Überflüge (nächste 24 Stunden)

TLE

VeraltetSource: Space-Track

Epoche: Feb 21, 2021, 22:42 UTC

1 36155U 99025DSC 21052.94639350  .00001143  00000-0  58184-3 0  9992
2 36155  98.9838  98.9301 0023540  39.3634 320.9246 14.17731192698464

Verfolge FENGYUN 1C DEB in Echtzeit mit AllMySat

Download on the App Store